Location: Namasale
(1.5000°N, 32.6167°E)
Time: 09:37:12
(UTC+00:00)

Courier 1B - Pass Details

Date: 19 April 2021
Orbit: 962 x 1209 km, 28.3° (Epoch: 15 May)

Event Time Altitude Azimuth Distance (km) Brightness Sun altitude
Rises 20:19:41 0° 273° (W) 3,859 - -64.4°
Reaches altitude 10° 20:22:51 10° 261° (W) 2,947 - -65.1°
Maximum altitude 20:28:46 26° 207° (SSW) 2,052 - -66.3°
Drops below altitude 10° 20:34:57 10° 152° (SSE) 3,087 - -67.6°
Sets 20:38:23 0° 140° (SE) 4,078 - -68.3°
